Date,TemperatureHighF,TemperatureAvgF,TemperatureLowF,DewpointHighF,DewpointAvgF,DewpointLowF,HumidityHigh,HumidityAvg,HumidityLow,PressureMaxIn,PressureMinIn,WindSpeedMaxMPH,WindSpeedAvgMPH,GustSpeedMaxMPH,PrecipitationSumIn
2013-3-1,26,24,22,20,18,16,80,77,74,30.23,30.09,11,3,11,0.00
2013-3-2,37,21,6,20,12,-2,76,67,50,30.24,30.13,9,1,9,0.00
2013-3-3,42,17,-1,21,5,-7,79,62,39,30.18,30.04,7,0,7,0.00
2013-3-4,35,21,5,24,12,-3,76,70,60,30.15,30.04,16,2,16,0.00
2013-3-5,31,29,26,27,24,22,86,82,75,30.03,29.87,14,2,17,0.00
2013-3-6,36,30,26,27,24,21,84,78,68,30.31,30.09,9,3,11,0.00
2013-3-7,43,30,20,26,19,11,77,65,49,30.44,30.32,6,0,6,0.00
2013-3-8,48,25,9,30,16,3,82,70,49,30.49,30.32,12,1,12,0.00
2013-3-9,42,34,25,32,27,20,83,75,64,30.29,29.85,12,1,15,0.00
2013-3-10,44,39,35,40,35,30,89,87,84,29.82,29.62,19,0,19,0.00
2013-3-11,39,34,31,36,31,27,90,89,86,29.73,29.54,10,1,11,0.00
2013-3-12,34,30,26,27,24,20,86,77,61,29.97,29.83,14,3,16,0.00
2013-3-13,38,28,19,17,13,8,78,55,42,30.31,30.16,12,2,12,0.00
2013-3-14,40,27,15,27,18,7,82,68,52,30.32,30.06,11,0,11,0.00
2013-3-15,39,32,27,33,27,23,86,83,77,30.07,29.80,10,0,10,0.00
2013-3-16,38,30,26,27,23,18,85,76,58,30.13,29.79,8,0,8,0.00
2013-3-17,37,27,20,22,17,11,78,67,53,30.24,30.02,13,1,13,0.00
2013-3-18,35,29,19,30,23,11,85,79,71,30.02,29.59,11,1,11,0.00
2013-3-19,33,21,13,15,10,6,74,62,46,30.04,29.73,21,4,21,0.00
2013-3-20,23,16,10,8,4,0,63,59,50,30.09,30.00,16,2,16,0.00
2013-3-21,36,20,9,17,8,0,69,60,45,30.05,29.97,10,1,10,0.00
2013-3-22,43,24,10,22,12,4,77,60,42,30.08,29.97,6,0,6,0.00
2013-3-23,44,29,16,25,19,10,78,66,44,30.15,30.04,11,0,11,0.00
2013-3-24,36,32,30,27,24,21,77,73,69,30.06,29.75,12,2,12,0.00
2013-3-25,36,31,28,26,23,20,79,73,64,30.09,29.78,9,2,9,0.00
2013-3-26,46,35,30,30,25,23,76,67,53,30.24,30.08,9,1,9,0.00
2013-3-27,42,35,25,27,22,16,70,59,47,30.31,30.24,7,0,7,0.00
2013-3-28,51,34,22,28,21,15,79,59,38,30.35,30.24,7,0,7,0.00
2013-3-29,55,37,23,29,22,16,79,56,34,30.32,30.21,7,0,7,0.00
2013-3-30,57,41,24,39,30,17,81,64,49,30.25,29.81,19,2,19,0.00
2013-3-31,52,42,32,40,33,21,85,72,54,29.90,29.69,19,3,19,0.00